sat.trackr.live / text

‹ back to catalog

STARLINK-36630

NORAD 67703 · 2026-025L

PAYLOAD ACTIVE UNKNOWN

§ Identity

Operator
Country
US
Launch date
2026-02-07
Launch site
AFWTR
Launch vehicle
Mass (kg)
RCS (m²)

Purposes: comms

External: N2YO · Heavens-Above · Gunter

§ Orbital elements

Epoch: 2026-05-25T00:56:18.913056Z

Period
93.91 min
Inclination
97.2852°
Eccentricity
0.0000580
Mean motion
15.33455041 rev/d
Perigee alt
465.1 km
Apogee alt
465.9 km
Semi-major
6,843.7 km
B*
3.5670e-4
RAAN
256.6575°
Arg perigee
110.0230°
Mean anomaly
250.1075°
Rev number
1,771

§ Raw data

STARLINK-366301 67703U 26025L   26145.03910779  .00011462  00000+0  35670-3 0  99992 67703  97.2852 256.6575 0000580 110.0230 250.1075 15.33455041 17711

JSON: /api/v1/satellites/67703 · /tle

For live sub-satellite position, see the globe view (requires WebGL).

§ Visibility from observer

Set your observer location to see the next 7 days of passes ≥ 10°. The values pass through the URL so the page stays shareable.

No JS? Fill the form by hand. The geolocation button needs JavaScript.